This is the latest recevied weather packets stored in our database for station/object EA4URC-13. If no packets are shown the sender has not sent any weather packets the latest 10 day(s).
| Time | Temp. | Humidity | Pressure | Rain* | Wind** | Luminosity | Snow |
|---|---|---|---|---|---|---|---|
| 1787825857 | 26.11° C | 33% | 1020.3 hPa | - | - | - | - |
| 1787824957 | 25° C | 35% | 1020.1 hPa | - | - | - | - |
| 1787824057 | 25.56° C | 33% | 1019.8 hPa | - | - | - | - |
| 1787823157 | 26.11° C | 32% | 1019.7 hPa | - | - | - | - |
| 1787822257 | 25.56° C | 36% | 1019.7 hPa | - | - | - | - |
| 1787821357 | 23.33° C | 40% | 1019.6 hPa | - | - | - | - |
| 1787820457 | 23.89° C | 40% | 1019.7 hPa | - | - | - | - |
| 1787819557 | 23.89° C | 40% | 1019.7 hPa | - | - | - | - |
| 1787818657 | 21.11° C | 45% | 1019.5 hPa | - | - | - | - |
| 1787817757 | 21.67° C | 44% | 1019.5 hPa | - | - | - | - |
| 1787816857 | 21.11° C | 45% | 1019.4 hPa | - | - | - | - |
| 1787815965 | 21.67° C | 43% | 1019.3 hPa | - | - | - | - |
| 1787815057 | 20.56° C | 45% | 1019.3 hPa | - | - | - | - |
| 1787814157 | 20.56° C | 45% | 1019.1 hPa | - | - | - | - |
| 1787813256 | 18.89° C | 48% | 1018.9 hPa | - | - | - | - |
| 1787812357 | 20° C | 45% | 1018.9 hPa | - | - | - | - |
| 1787811457 | 19.44° C | 45% | 1018.7 hPa | - | - | - | - |
| 1787810557 | 18.89° C | 46% | 1018.5 hPa | - | - | - | - |
| 1787809657 | 18.89° C | 47% | 1018.3 hPa | - | - | - | - |
| 1787808757 | 18.89° C | 46% | 1018.2 hPa | - | - | - | - |
| 1787807857 | 18.89° C | 46% | 1018.1 hPa | - | - | - | - |
| 1787806957 | 18.89° C | 45% | 1018 hPa | - | - | - | - |
| 1787806057 | 18.89° C | 45% | 1018 hPa | - | - | - | - |
| 1787805160 | 19.44° C | 44% | 1018 hPa | - | - | - | - |
| 1787804257 | 19.44° C | 44% | 1017.8 hPa | - | - | - | - |
* Rain since midnight (hover to see other rain measurements)
** Current wind speed in m/s (hover to see current wind gust speed)